Location: Ferchesar
(52.6477°N, 12.4298°E)
Time: 04:03:26
(UTC+01:00)

Explorer 7 - Pass Details

Date: 12 December 2021
Orbit: 483 x 674 km, 50.3° (Epoch: 21 January)

Event Time Altitude Azimuth Distance (km) Brightness Sun altitude
Rises 03:25:20 0° 228° (SW) 2,925 - -41.9°
Reaches altitude 10° 03:27:51 10° 220° (SW) 1,989 - -41.5°
Maximum altitude 03:31:59 35° 155° (SSE) 979 - -40.9°
Drops below altitude 10° 03:35:55 10° 89° (E) 1,885 - -40.4°
Exits shadow 03:36:29 - 86° (E) 2,087 10.5 -40.3°
Sets 03:38:15 0° 81° (E) 2,749 11.3 -40.0°
